,,PA_Meas_PMT16A,,PR_Meas_QMR101_102,,RH_Meas_QMH101,,SR_Meas_QMS101,,TA_Meas_QMH101,,GenWind,,GenWind,
time,status,PA,status,PR,status,RH,status,SR,status,TA,status,DirAvg,status,SpdAvg,
2009-09-18, 00:00:04,VALID,920.254,VALID,0.2,VALID,97.5111,VALID,0,VALID,19.7988,VALID,12,VALID,0.874219,
2009-09-18, 00:01:04,VALID,920.216,VALID,0,VALID,97.5035,VALID,0,VALID,19.7988,VALID,12,VALID,0.802344,
2009-09-18, 00:02:04,VALID,920.216,VALID,0.2,VALID,97.5111,VALID,0,VALID,19.7583,VALID,12,VALID,0.683203,
2009-09-18, 00:03:04,VALID,920.167,VALID,0,VALID,97.5187,VALID,0,VALID,19.7793,VALID,12,VALID,0.938672,
2009-09-18, 00:04:04,VALID,920.18,VALID,0.2,VALID,97.5187,VALID,0,VALID,19.7793,VALID,12,VALID,0.8625,
2009-09-18, 00:05:04,VALID,920.157,VALID,0.2,VALID,97.5187,VALID,0,VALID,19.7793,VALID,13,VALID,0.964063,
2009-09-18, 00:06:04,VALID,920.173,VALID,0,VALID,97.5416,VALID,0,VALID,19.7793,VALID,13,VALID,0.926953,
2009-09-18, 00:07:04,VALID,920.145,VALID,0,VALID,97.5264,VALID,0,VALID,19.7583,VALID,13,VALID,0.869531,
2009-09-18, 00:08:04,VALID,920.159,VALID,0.2,VALID,97.5035,VALID,0,VALID,19.7388,VALID,13,VALID,1.0207,
2009-09-18, 00:09:04,VALID,920.132,VALID,0,VALID,97.5187,VALID,0,VALID,19.7388,VALID,14,VALID,0.928516,
2009-09-18, 00:10:04,VALID,920.121,VALID,0,VALID,97.5035,VALID,0,VALID,19.7388,VALID,14,VALID,0.762891,
2009-09-18, 00:11:04,VALID,920.108,VALID,0.2,VALID,97.5187,VALID,0.107441,VALID,19.7388,VALID,14,VALID,0.862109,
2009-09-18, 00:12:04,VALID,920.107,VALID,0,VALID,97.5264,VALID,0,VALID,19.7193,VALID,15,VALID,0.932031,
2009-09-18, 00:13:04,VALID,920.078,VALID,0.2,VALID,97.5187,VALID,0,VALID,19.7193,VALID,15,VALID,0.824219,
2009-09-18, 00:14:04,VALID,920.066,VALID,0,VALID,97.5035,VALID,0,VALID,19.6998,VALID,15,VALID,0.674609,
2009-09-18, 00:15:04,VALID,920.042,VALID,0,VALID,97.5035,VALID,0.107441,VALID,19.7193,VALID,15,VALID,0.659375,
2009-09-18, 00:16:04,VALID,920.019,VALID,0.2,VALID,97.534,VALID,0.107441,VALID,19.7193,VALID,15,VALID,0.502734,
2009-09-18, 00:17:04,VALID,920.017,VALID,0,VALID,97.534,VALID,0,VALID,19.7193,VALID,15,VALID,0.225391,
2009-09-18, 00:18:04,VALID,920.02,VALID,0,VALID,97.5416,VALID,0,VALID,19.7388,VALID,15,VALID,0.259375,
2009-09-18, 00:19:04,VALID,919.992,VALID,0.2,VALID,97.5492,VALID,0.107441,VALID,19.7583,VALID,15,VALID,0.0898438,
2009-09-18, 00:20:04,VALID,919.982,VALID,0,VALID,97.5264,VALID,0,VALID,19.7583,VALID,15,VALID,0.0613281,
2009-09-18, 00:21:04,VALID,919.971,VALID,0.2,VALID,97.534,VALID,0.107441,VALID,19.7373,VALID,15,VALID,0.231641,
2009-09-18, 00:22:04,VALID,919.969,VALID,0,VALID,97.5264,VALID,0,VALID,19.7598,VALID,15,VALID,0.325781,
2009-09-18, 00:23:04,VALID,919.943,VALID,0.2,VALID,97.5416,VALID,0,VALID,19.7793,VALID,15,VALID,0.385156,
2009-09-18, 00:24:04,VALID,919.921,VALID,0,VALID,97.5492,VALID,0,VALID,19.7598,VALID,15,VALID,0.378516,
2009-09-18, 00:25:04,VALID,919.865,VALID,0.2,VALID,97.5416,VALID,0,VALID,19.7793,VALID,15,VALID,0.323438,
2009-09-18, 00:26:04,VALID,919.876,VALID,0,VALID,97.534,VALID,0,VALID,19.7808,VALID,15,VALID,0.250391,
2009-09-18, 00:27:04,VALID,919.856,VALID,0.2,VALID,97.5492,VALID,0,VALID,19.8003,VALID,15,VALID,0.153516,
2009-09-18, 00:28:04,VALID,919.883,VALID,0.2,VALID,97.534,VALID,0,VALID,19.7793,VALID,15,VALID,0,
2009-09-18, 00:29:04,VALID,919.85,VALID,0,VALID,97.5569,VALID,0,VALID,19.7793,VALID,15,VALID,0,
2009-09-18, 00:30:04,VALID,919.828,VALID,0.2,VALID,97.5187,VALID,0,VALID,19.8183,VALID,15,VALID,0,
2009-09-18, 00:31:04,VALID,919.841,VALID,0.2,VALID,97.5416,VALID,0,VALID,19.8183,VALID,15,VALID,0,
2009-09-18, 00:32:04,VALID,919.846,VALID,0,VALID,97.534,VALID,0,VALID,19.8183,VALID,15,VALID,0.0460938,
2009-09-18, 00:33:04,VALID,919.839,VALID,0.2,VALID,97.5187,VALID,0,VALID,19.7793,VALID,15,VALID,0.328906,
2009-09-18, 00:34:04,VALID,919.839,VALID,0,VALID,97.5111,VALID,0,VALID,19.7793,VALID,15,VALID,0.351172,
2009-09-18, 00:35:04,VALID,919.852,VALID,0.2,VALID,97.5035,VALID,0,VALID,19.7613,VALID,15,VALID,0.538281,
2009-09-18, 00:36:04,VALID,919.838,VALID,0,VALID,97.5111,VALID,0,VALID,19.7208,VALID,15,VALID,0.606641,
2009-09-18, 00:37:04,VALID,919.834,VALID,0.2,VALID,97.5187,VALID,0,VALID,19.6998,VALID,15,VALID,0.379297,
2009-09-18, 00:38:04,VALID,919.826,VALID,0.2,VALID,97.5492,VALID,0,VALID,19.7403,VALID,15,VALID,0.0636719,
2009-09-18, 00:39:04,VALID,919.772,VALID,0,VALID,97.534,VALID,0,VALID,19.7193,VALID,15,VALID,0.30625,
2009-09-18, 00:40:04,VALID,919.731,VALID,0.2,VALID,97.5264,VALID,0,VALID,19.7193,VALID,15,VALID,0.0992187,
2009-09-18, 00:41:04,VALID,919.734,VALID,0,VALID,97.5187,VALID,0.107441,VALID,19.7193,VALID,15,VALID,0,
2009-09-18, 00:42:04,VALID,919.688,VALID,0.2,VALID,97.534,VALID,0,VALID,19.7193,VALID,15,VALID,0.0015625,
2009-09-18, 00:43:04,VALID,919.66,VALID,0,VALID,97.5645,VALID,0.107441,VALID,19.7193,VALID,15,VALID,0,
2009-09-18, 00:44:04,VALID,919.665,VALID,0.2,VALID,97.534,VALID,0,VALID,19.6998,VALID,15,VALID,0.353906,
2009-09-18, 00:45:04,VALID,919.619,VALID,0,VALID,97.5492,VALID,0,VALID,19.6998,VALID,15,VALID,0.323047,
2009-09-18, 00:46:04,VALID,919.612,VALID,0.2,VALID,97.5264,VALID,0,VALID,19.6998,VALID,15,VALID,0.328516,
2009-09-18, 00:47:04,VALID,919.614,VALID,0,VALID,97.534,VALID,0,VALID,19.6998,VALID,15,VALID,0.426953,
2009-09-18, 00:48:04,VALID,919.585,VALID,0,VALID,97.5264,VALID,0,VALID,19.6998,VALID,15,VALID,0.503516,
2009-09-18, 00:49:04,VALID,919.58,VALID,0.2,VALID,97.5492,VALID,0,VALID,19.6803,VALID,15,VALID,0.710547,
2009-09-18, 00:50:04,VALID,919.554,VALID,0,VALID,97.5111,VALID,0.107441,VALID,19.6803,VALID,15,VALID,0.603906,
2009-09-18, 00:51:04,VALID,919.542,VALID,0,VALID,97.534,VALID,0,VALID,19.6608,VALID,15,VALID,0.623828,
2009-09-18, 00:52:04,VALID,919.52,VALID,0,VALID,97.5264,VALID,0.107441,VALID,19.6593,VALID,15,VALID,0.793359,
2009-09-18, 00:53:04,VALID,919.499,VALID,0.2,VALID,97.534,VALID,0.107441,VALID,19.6593,VALID,15,VALID,0.671484,
2009-09-18, 00:54:04,VALID,919.522,VALID,0,VALID,97.5645,VALID,0.107441,VALID,19.6998,VALID,15,VALID,0.538672,
2009-09-18, 00:55:04,VALID,919.486,VALID,0,VALID,97.5416,VALID,0.107441,VALID,19.6803,VALID,15,VALID,0.631641,
2009-09-18, 00:56:04,VALID,919.467,VALID,0,VALID,97.5569,VALID,0.107441,VALID,19.6803,VALID,15,VALID,0.335156,
2009-09-18, 00:57:04,VALID,919.435,VALID,0.2,VALID,97.5492,VALID,0,VALID,19.7013,VALID,15,VALID,0.385938,
2009-09-18, 00:58:04,VALID,919.451,VALID,0,VALID,97.5569,VALID,0.107441,VALID,19.6998,VALID,15,VALID,0.529297,
2009-09-18, 00:59:04,VALID,919.441,VALID,0,VALID,97.5569,VALID,0.107441,VALID,19.6998,VALID,15,VALID,0.722656,
2009-09-18, 01:00:04,VALID,919.444,VALID,0,VALID,97.534,VALID,0,VALID,19.6608,VALID,15,VALID,0.327734,
2009-09-18, 01:01:04,VALID,919.426,VALID,0,VALID,97.534,VALID,0.107441,VALID,19.6818,VALID,15,VALID,0.670703,
2009-09-18, 01:02:04,VALID,919.419,VALID,0,VALID,97.5416,VALID,0.107441,VALID,19.6608,VALID,15,VALID,0.409375,
2009-09-18, 01:03:04,VALID,919.409,VALID,0,VALID,97.5187,VALID,0,VALID,19.6413,VALID,15,VALID,0.85625,
2009-09-18, 01:04:04,VALID,919.424,VALID,0,VALID,97.5111,VALID,0.107441,VALID,19.6413,VALID,15,VALID,0.506641,
2009-09-18, 01:05:04,VALID,919.397,VALID,0,VALID,97.5492,VALID,0.107441,VALID,19.6218,VALID,15,VALID,0.464063,
2009-09-18, 01:06:04,VALID,919.366,VALID,0,VALID,97.5416,VALID,0.107441,VALID,19.6218,VALID,15,VALID,0.532422,
2009-09-18, 01:07:04,VALID,919.334,VALID,0,VALID,97.534,VALID,0,VALID,19.6023,VALID,15,VALID,0.414844,
2009-09-18, 01:08:04,VALID,919.342,VALID,0,VALID,97.5569,VALID,0.107441,VALID,19.6023,VALID,15,VALID,0.542188,
2009-09-18, 01:09:04,VALID,919.298,VALID,0,VALID,97.5645,VALID,0.107441,VALID,19.6218,VALID,15,VALID,0.227734,
2009-09-18, 01:10:04,VALID,919.309,VALID,0,VALID,97.5797,VALID,0,VALID,19.6413,VALID,15,VALID,0.318359,
2009-09-18, 01:11:04,VALID,919.312,VALID,0,VALID,97.5873,VALID,0.107441,VALID,19.6803,VALID,15,VALID,0.148438,
2009-09-18, 01:12:04,VALID,919.31,VALID,0,VALID,97.5797,VALID,0,VALID,19.6803,VALID,15,VALID,0.307422,
2009-09-18, 01:13:04,VALID,919.269,VALID,0,VALID,97.5569,VALID,0,VALID,19.7013,VALID,15,VALID,0.632031,
2009-09-18, 01:14:04,VALID,919.294,VALID,0,VALID,97.5569,VALID,0,VALID,19.6803,VALID,15,VALID,0.585938,
2009-09-18, 01:15:04,VALID,919.3,VALID,0,VALID,97.5187,VALID,0.107441,VALID,19.6413,VALID,15,VALID,0.723828,
2009-09-18, 01:16:04,VALID,919.285,VALID,0,VALID,97.5416,VALID,0,VALID,19.6413,VALID,15,VALID,0.732813,
2009-09-18, 01:17:04,VALID,919.271,VALID,0,VALID,97.534,VALID,0.107441,VALID,19.6218,VALID,15,VALID,0.93125,
2009-09-18, 01:18:04,VALID,919.249,VALID,0,VALID,97.5264,VALID,0,VALID,19.6023,VALID,15,VALID,0.954687,
2009-09-18, 01:19:04,VALID,919.232,VALID,0.2,VALID,97.5569,VALID,0.107441,VALID,19.6008,VALID,15,VALID,0.757813,
2009-09-18, 01:20:04,VALID,919.246,VALID,0,VALID,97.5645,VALID,0.107441,VALID,19.6023,VALID,15,VALID,0.583594,
2009-09-18, 01:21:04,VALID,919.246,VALID,0,VALID,97.5416,VALID,0,VALID,19.6023,VALID,15,VALID,0.814844,
2009-09-18, 01:22:04,VALID,919.248,VALID,0,VALID,97.5569,VALID,0.107441,VALID,19.5828,VALID,15,VALID,1.02109,
2009-09-18, 01:23:04,VALID,919.238,VALID,0,VALID,97.5645,VALID,0.107441,VALID,19.5828,VALID,15,VALID,0.832422,
2009-09-18, 01:24:04,VALID,919.244,VALID,0,VALID,97.5645,VALID,0,VALID,19.5828,VALID,15,VALID,0.54375,
2009-09-18, 01:25:04,VALID,919.239,VALID,0,VALID,97.5873,VALID,0.107441,VALID,19.6023,VALID,15,VALID,0.535547,
2009-09-18, 01:26:04,VALID,919.252,VALID,0,VALID,97.5721,VALID,0,VALID,19.5828,VALID,16,VALID,0.404687,
2009-09-18, 01:27:04,VALID,919.22,VALID,0,VALID,97.5492,VALID,0,VALID,19.5828,VALID,16,VALID,0.45,
2009-09-18, 01:28:04,VALID,919.245,VALID,0,VALID,97.5569,VALID,0,VALID,19.5633,VALID,16,VALID,0.628125,
2009-09-18, 01:29:04,VALID,919.223,VALID,0,VALID,97.5492,VALID,0.107441,VALID,19.5438,VALID,16,VALID,0.325781,
2009-09-18, 01:30:04,VALID,919.212,VALID,0,VALID,97.534,VALID,0.107441,VALID,19.5438,VALID,16,VALID,0.401563,
2009-09-18, 01:31:04,VALID,919.165,VALID,0,VALID,97.5645,VALID,0.107441,VALID,19.5243,VALID,16,VALID,0.588672,
2009-09-18, 01:32:04,VALID,919.151,VALID,0,VALID,97.5645,VALID,0.107441,VALID,19.5243,VALID,16,VALID,0.314844,
2009-09-18, 01:33:04,VALID,919.143,VALID,0,VALID,97.5645,VALID,0.107441,VALID,19.5033,VALID,16,VALID,0.401563,
2009-09-18, 01:34:04,VALID,919.151,VALID,0.2,VALID,97.5797,VALID,0.107441,VALID,19.5438,VALID,16,VALID,0.269922,
2009-09-18, 01:35:04,VALID,919.081,VALID,0,VALID,97.5721,VALID,0.107441,VALID,19.5228,VALID,16,VALID,0.313281,
2009-09-18, 01:36:04,VALID,919.093,VALID,0,VALID,97.5645,VALID,0.214882,VALID,19.5228,VALID,16,VALID,0.269922,
2009-09-18, 01:37:04,VALID,919.034,VALID,0,VALID,97.5721,VALID,0,VALID,19.5453,VALID,16,VALID,0.316797,
2009-09-18, 01:38:04,VALID,919.024,VALID,0.2,VALID,97.5721,VALID,0,VALID,19.5453,VALID,16,VALID,0.355859,
2009-09-18, 01:39:04,VALID,919.065,VALID,0,VALID,97.5645,VALID,0,VALID,19.5453,VALID,16,VALID,0.289453,
2009-09-18, 01:40:04,VALID,919.034,VALID,0,VALID,97.5721,VALID,0,VALID,19.5438,VALID,16,VALID,0.142969,
2009-09-18, 01:41:04,VALID,919.029,VALID,0.2,VALID,97.5873,VALID,0,VALID,19.6038,VALID,16,VALID,0.265625,
2009-09-18, 01:42:04,VALID,919.009,VALID,0,VALID,97.6026,VALID,0,VALID,19.6233,VALID,16,VALID,0.292969,
2009-09-18, 01:43:04,VALID,919.022,VALID,0,VALID,97.5569,VALID,0,VALID,19.6038,VALID,16,VALID,0.11875,
2009-09-18, 01:44:04,VALID,919.002,VALID,0,VALID,97.5873,VALID,0,VALID,19.6233,VALID,16,VALID,0.211719,
2009-09-18, 01:45:04,VALID,919.004,VALID,0.2,VALID,97.5645,VALID,0,VALID,19.6233,VALID,16,VALID,0.0773437,
2009-09-18, 01:46:04,VALID,918.986,VALID,0,VALID,97.5721,VALID,0,VALID,19.6023,VALID,16,VALID,0,
2009-09-18, 01:47:04,VALID,918.997,VALID,0,VALID,97.5645,VALID,0,VALID,19.6038,VALID,16,VALID,0,
2009-09-18, 01:48:04,VALID,919.031,VALID,0,VALID,97.5721,VALID,0,VALID,19.6023,VALID,16,VALID,0,
2009-09-18, 01:49:04,VALID,919.024,VALID,0,VALID,97.5569,VALID,0,VALID,19.6038,VALID,16,VALID,0.211719,
2009-09-18, 01:50:04,VALID,919.011,VALID,0.2,VALID,97.5645,VALID,0,VALID,19.5648,VALID,16,VALID,0.150391,
2009-09-18, 01:51:04,VALID,919.006,VALID,0,VALID,97.5416,VALID,0,VALID,19.5453,VALID,16,VALID,0.310156,
2009-09-18, 01:52:04,VALID,919.005,VALID,0,VALID,97.5645,VALID,0,VALID,19.5468,VALID,16,VALID,0.382031,
2009-09-18, 01:53:04,VALID,919.002,VALID,0,VALID,97.5492,VALID,0,VALID,19.5453,VALID,16,VALID,0.357812,
2009-09-18, 01:54:04,VALID,919.009,VALID,0.2,VALID,97.5492,VALID,0,VALID,19.5273,VALID,16,VALID,0.463281,
2009-09-18, 01:55:04,VALID,918.991,VALID,0,VALID,97.5645,VALID,0,VALID,19.5063,VALID,16,VALID,0.510156,
2009-09-18, 01:56:04,VALID,918.991,VALID,0,VALID,97.5492,VALID,0,VALID,19.4868,VALID,16,VALID,0.735547,
2009-09-18, 01:57:04,VALID,918.96,VALID,0,VALID,97.5187,VALID,0,VALID,19.4883,VALID,16,VALID,0.741016,
2009-09-18, 01:58:04,VALID,918.961,VALID,0,VALID,97.5111,VALID,0,VALID,19.4283,VALID,16,VALID,0.567578,
2009-09-18, 01:59:04,VALID,918.943,VALID,0,VALID,97.534,VALID,0,VALID,19.4283,VALID,16,VALID,0.599609,
2009-09-18, 02:00:04,VALID,918.902,VALID,0,VALID,97.534,VALID,0,VALID,19.4103,VALID,16,VALID,0.951172,
2009-09-18, 02:01:04,VALID,918.924,VALID,0,VALID,97.5416,VALID,0,VALID,19.3908,VALID,16,VALID,0.907812,
2009-09-18, 02:02:04,VALID,918.896,VALID,0.2,VALID,97.534,VALID,0,VALID,19.3713,VALID,16,VALID,1.12695,
2009-09-18, 02:03:04,VALID,918.891,VALID,0,VALID,97.5492,VALID,0,VALID,19.3308,VALID,16,VALID,0.976563,
2009-09-18, 02:04:04,VALID,918.846,VALID,0,VALID,97.5721,VALID,0,VALID,19.3308,VALID,34,VALID,0.614453,
2009-09-18, 02:05:04,VALID,918.862,VALID,0,VALID,97.5873,VALID,0,VALID,19.3518,VALID,35,VALID,0.738672,
2009-09-18, 02:06:04,VALID,918.843,VALID,0.2,VALID,97.5873,VALID,0,VALID,19.3518,VALID,35,VALID,0.457031,
2009-09-18, 02:07:04,VALID,918.825,VALID,0,VALID,97.5873,VALID,0,VALID,19.3518,VALID,36,VALID,0.826563,
2009-09-18, 02:08:04,VALID,918.832,VALID,0.2,VALID,97.6026,VALID,0,VALID,19.3713,VALID,162,VALID,0.834375,
2009-09-18, 02:09:04,VALID,918.83,VALID,0,VALID,97.595,VALID,0,VALID,19.3698,VALID,118,VALID,1.23047,
2009-09-18, 02:10:04,VALID,918.837,VALID,0.2,VALID,97.595,VALID,0,VALID,19.3713,VALID,113,VALID,1.25352,
2009-09-18, 02:11:04,VALID,918.811,VALID,0,VALID,97.6026,VALID,0,VALID,19.3518,VALID,133,VALID,1.50156,
2009-09-18, 02:12:04,VALID,918.825,VALID,0.2,VALID,97.595,VALID,0,VALID,19.3503,VALID,144,VALID,1.2207,
2009-09-18, 02:13:04,VALID,918.817,VALID,0,VALID,97.6026,VALID,0,VALID,19.3908,VALID,150,VALID,1.27266,
2009-09-18, 02:14:04,VALID,918.807,VALID,0,VALID,97.6026,VALID,0,VALID,19.3698,VALID,131,VALID,1.43281,
2009-09-18, 02:15:04,VALID,918.795,VALID,0.2,VALID,97.5797,VALID,0,VALID,19.3713,VALID,127,VALID,1.38594,
2009-09-18, 02:16:04,VALID,918.805,VALID,0,VALID,97.595,VALID,0,VALID,19.3698,VALID,127,VALID,1.28008,
2009-09-18, 02:17:04,VALID,918.8,VALID,0,VALID,97.595,VALID,0,VALID,19.3908,VALID,127,VALID,1.16875,
2009-09-18, 02:18:04,VALID,918.765,VALID,0.2,VALID,97.5873,VALID,0,VALID,19.3908,VALID,127,VALID,0.467187,
2009-09-18, 02:19:04,VALID,918.783,VALID,0,VALID,97.6255,VALID,0,VALID,19.3698,VALID,127,VALID,0.732813,
2009-09-18, 02:20:04,VALID,918.751,VALID,0,VALID,97.5873,VALID,0,VALID,19.3698,VALID,127,VALID,0.983984,
2009-09-18, 02:21:04,VALID,918.759,VALID,0,VALID,97.5797,VALID,0,VALID,19.3713,VALID,127,VALID,1.10664,
2009-09-18, 02:22:04,VALID,918.739,VALID,0.2,VALID,97.5873,VALID,0,VALID,19.3489,VALID,127,VALID,1.02773,
2009-09-18, 02:23:04,VALID,918.733,VALID,0,VALID,97.5797,VALID,0,VALID,19.3489,VALID,127,VALID,0.666797,
2009-09-18, 02:24:04,VALID,918.714,VALID,0,VALID,97.5873,VALID,0,VALID,19.3684,VALID,217,VALID,0.492188,
2009-09-18, 02:25:04,VALID,918.736,VALID,0,VALID,97.595,VALID,0,VALID,19.3893,VALID,217,VALID,0.467187,
2009-09-18, 02:26:04,VALID,918.758,VALID,0,VALID,97.595,VALID,0,VALID,19.3893,VALID,186,VALID,1.19062,
2009-09-18, 02:27:04,VALID,918.741,VALID,0.2,VALID,97.5873,VALID,0,VALID,19.3893,VALID,147,VALID,0.804688,
2009-09-18, 02:28:04,VALID,918.77,VALID,0,VALID,97.5797,VALID,0,VALID,19.3698,VALID,152,VALID,1.98008,
2009-09-18, 02:29:04,VALID,918.763,VALID,0,VALID,97.5645,VALID,0,VALID,19.3489,VALID,124,VALID,1.34766,
2009-09-18, 02:30:04,VALID,918.772,VALID,0,VALID,97.5873,VALID,0,VALID,19.3684,VALID,124,VALID,1.27813,
2009-09-18, 02:31:04,VALID,918.769,VALID,0.2,VALID,97.6102,VALID,0,VALID,19.3879,VALID,124,VALID,1.50273,
2009-09-18, 02:32:04,VALID,918.78,VALID,0,VALID,97.6102,VALID,0,VALID,19.4088,VALID,124,VALID,1.43047,
2009-09-18, 02:33:04,VALID,918.779,VALID,0.2,VALID,97.6178,VALID,0,VALID,19.4088,VALID,118,VALID,1.14336,
2009-09-18, 02:34:04,VALID,918.76,VALID,0,VALID,97.6026,VALID,0,VALID,19.3893,VALID,117,VALID,0.828125,
2009-09-18, 02:35:04,VALID,918.752,VALID,0.2,VALID,97.6026,VALID,0.107441,VALID,19.3684,VALID,116,VALID,1.20898,
2009-09-18, 02:36:04,VALID,918.726,VALID,0.2,VALID,97.6026,VALID,0,VALID,19.4088,VALID,116,VALID,0.533594,
2009-09-18, 02:37:04,VALID,918.682,VALID,0.2,VALID,97.6102,VALID,0,VALID,19.4103,VALID,116,VALID,0.357812,
2009-09-18, 02:38:04,VALID,918.669,VALID,0,VALID,97.6331,VALID,0,VALID,19.4103,VALID,116,VALID,0,
2009-09-18, 02:39:04,VALID,918.63,VALID,0.2,VALID,97.5873,VALID,0,VALID,19.4298,VALID,116,VALID,0.0160156,
2009-09-18, 02:40:04,VALID,918.648,VALID,0.2,VALID,97.6026,VALID,0,VALID,19.4088,VALID,116,VALID,0.450781,
2009-09-18, 02:41:04,VALID,918.646,VALID,0,VALID,97.6026,VALID,0,VALID,19.4298,VALID,116,VALID,0.634375,
2009-09-18, 02:42:04,VALID,918.633,VALID,0.2,VALID,97.595,VALID,0,VALID,19.3893,VALID,116,VALID,0.454297,
2009-09-18, 02:43:04,VALID,918.657,VALID,0,VALID,97.5721,VALID,0,VALID,19.3503,VALID,116,VALID,0.518359,
2009-09-18, 02:44:04,VALID,918.643,VALID,0.2,VALID,97.5645,VALID,0,VALID,19.3698,VALID,116,VALID,0.76875,
2009-09-18, 02:45:04,VALID,918.637,VALID,0,VALID,97.5797,VALID,0,VALID,19.3503,VALID,116,VALID,0.596875,
2009-09-18, 02:46:04,VALID,918.638,VALID,0,VALID,97.5797,VALID,0,VALID,19.3503,VALID,116,VALID,1.1375,
2009-09-18, 02:47:04,VALID,918.68,VALID,0.2,VALID,97.6026,VALID,0,VALID,19.3308,VALID,116,VALID,0.624609,
2009-09-18, 02:48:04,VALID,918.617,VALID,0,VALID,97.5721,VALID,0,VALID,19.3308,VALID,116,VALID,0.541406,
2009-09-18, 02:49:04,VALID,918.669,VALID,0.2,VALID,97.5873,VALID,0,VALID,19.3503,VALID,116,VALID,0.611719,
2009-09-18, 02:50:04,VALID,918.683,VALID,0,VALID,97.6026,VALID,0,VALID,19.3518,VALID,116,VALID,1.16562,
2009-09-18, 02:51:04,VALID,918.645,VALID,0,VALID,97.595,VALID,0,VALID,19.3518,VALID,116,VALID,1.13164,
2009-09-18, 02:52:04,VALID,918.662,VALID,0,VALID,97.595,VALID,0,VALID,19.3503,VALID,116,VALID,0.896094,
2009-09-18, 02:53:04,VALID,918.66,VALID,0,VALID,97.6102,VALID,0,VALID,19.3698,VALID,116,VALID,1.14844,
2009-09-18, 02:54:04,VALID,918.678,VALID,0,VALID,97.5873,VALID,0,VALID,19.3698,VALID,116,VALID,0.905078,
2009-09-18, 02:55:04,VALID,918.704,VALID,0.2,VALID,97.6178,VALID,0,VALID,19.3698,VALID,116,VALID,0.664063,
2009-09-18, 02:56:04,VALID,918.687,VALID,0,VALID,97.5873,VALID,0,VALID,19.3503,VALID,116,VALID,0.995313,
2009-09-18, 02:57:04,VALID,918.694,VALID,0,VALID,97.5721,VALID,0,VALID,19.3294,VALID,116,VALID,0.855859,
2009-09-18, 02:58:04,VALID,918.695,VALID,0,VALID,97.6026,VALID,0,VALID,19.3294,VALID,115,VALID,1.15977,
2009-09-18, 02:59:04,VALID,918.72,VALID,0,VALID,97.6178,VALID,0,VALID,19.3308,VALID,160,VALID,1.22461,
2009-09-18, 03:00:04,VALID,918.731,VALID,0,VALID,97.6255,VALID,0.107441,VALID,19.3294,VALID,166,VALID,1.34414,
2009-09-18, 03:01:04,VALID,918.747,VALID,0,VALID,97.5873,VALID,0,VALID,19.3099,VALID,167,VALID,1.60156,
2009-09-18, 03:02:04,VALID,918.756,VALID,0.2,VALID,97.595,VALID,0,VALID,19.3503,VALID,167,VALID,1.07187,
2009-09-18, 03:03:04,VALID,918.755,VALID,0,VALID,97.6102,VALID,0,VALID,19.3503,VALID,180,VALID,1.34766,
2009-09-18, 03:04:04,VALID,918.735,VALID,0,VALID,97.6026,VALID,0.107441,VALID,19.3294,VALID,168,VALID,0.934766,
2009-09-18, 03:05:04,VALID,918.762,VALID,0,VALID,97.5721,VALID,0,VALID,19.3099,VALID,142,VALID,1.02383,
2009-09-18, 03:06:04,VALID,918.721,VALID,0,VALID,97.595,VALID,0,VALID,19.3099,VALID,151,VALID,1.37578,
2009-09-18, 03:07:04,VALID,918.7,VALID,0,VALID,97.6026,VALID,0,VALID,19.3113,VALID,141,VALID,1.06445,
2009-09-18, 03:08:04,VALID,918.717,VALID,0,VALID,97.6026,VALID,0,VALID,19.3113,VALID,157,VALID,0.666406,
2009-09-18, 03:09:04,VALID,918.719,VALID,0,VALID,97.5873,VALID,0,VALID,19.2918,VALID,176,VALID,1.50742,
2009-09-18, 03:10:04,VALID,918.699,VALID,0,VALID,97.5797,VALID,0,VALID,19.2918,VALID,183,VALID,0.643359,
2009-09-18, 03:11:04,VALID,918.696,VALID,0,VALID,97.6026,VALID,0,VALID,19.3323,VALID,184,VALID,0.63125,
2009-09-18, 03:12:04,VALID,918.649,VALID,0,VALID,97.6178,VALID,0,VALID,19.3128,VALID,184,VALID,0.439063,
2009-09-18, 03:13:04,VALID,918.688,VALID,0,VALID,97.6178,VALID,0,VALID,19.3113,VALID,184,VALID,0.225781,
2009-09-18, 03:14:04,VALID,918.666,VALID,0,VALID,97.6026,VALID,0,VALID,19.3518,VALID,184,VALID,0.439844,
2009-09-18, 03:15:04,VALID,918.672,VALID,0,VALID,97.595,VALID,0,VALID,19.3323,VALID,184,VALID,0.970312,
2009-09-18, 03:16:04,VALID,918.677,VALID,0.2,VALID,97.6026,VALID,0,VALID,19.3128,VALID,184,VALID,0.636719,
2009-09-18, 03:17:04,VALID,918.688,VALID,0,VALID,97.5873,VALID,0,VALID,19.2933,VALID,184,VALID,0.526563,
2009-09-18, 03:18:04,VALID,918.718,VALID,0,VALID,97.5873,VALID,0,VALID,19.2933,VALID,184,VALID,0.435547,
2009-09-18, 03:19:04,VALID,918.686,VALID,0,VALID,97.5721,VALID,0,VALID,19.2738,VALID,184,VALID,0.491797,
2009-09-18, 03:20:04,VALID,918.66,VALID,0,VALID,97.5721,VALID,0,VALID,19.2543,VALID,184,VALID,0.645312,
2009-09-18, 03:21:04,VALID,918.668,VALID,0,VALID,97.5873,VALID,0,VALID,19.2753,VALID,184,VALID,0.228906,
2009-09-18, 03:22:04,VALID,918.632,VALID,0,VALID,97.6026,VALID,0,VALID,19.2723,VALID,184,VALID,0.728125,
2009-09-18, 03:23:04,VALID,918.657,VALID,0,VALID,97.595,VALID,0,VALID,19.2528,VALID,184,VALID,0.462109,
2009-09-18, 03:24:04,VALID,918.647,VALID,0,VALID,97.595,VALID,0,VALID,19.2528,VALID,184,VALID,0.534766,
2009-09-18, 03:25:04,VALID,918.621,VALID,0,VALID,97.5873,VALID,0,VALID,19.2139,VALID,184,VALID,0.590625,
2009-09-18, 03:26:04,VALID,918.622,VALID,0,VALID,97.5797,VALID,0,VALID,19.2139,VALID,184,VALID,0.613672,
2009-09-18, 03:27:04,VALID,918.61,VALID,0,VALID,97.5797,VALID,0,VALID,19.2124,VALID,184,VALID,0.408984,
2009-09-18, 03:28:04,VALID,918.615,VALID,0,VALID,97.6026,VALID,0,VALID,19.1944,VALID,184,VALID,0.491406,
2009-09-18, 03:29:04,VALID,918.606,VALID,0,VALID,97.5797,VALID,0,VALID,19.1944,VALID,184,VALID,0.347266,
2009-09-18, 03:30:04,VALID,918.592,VALID,0,VALID,97.595,VALID,0,VALID,19.1749,VALID,184,VALID,0.196875,
2009-09-18, 03:31:04,VALID,918.596,VALID,0,VALID,97.6026,VALID,0,VALID,19.1539,VALID,184,VALID,0.276953,
2009-09-18, 03:32:04,VALID,918.618,VALID,0,VALID,97.595,VALID,0,VALID,19.1344,VALID,184,VALID,0.725781,
2009-09-18, 03:33:04,VALID,918.587,VALID,0,VALID,97.5797,VALID,0,VALID,19.1554,VALID,184,VALID,0.433594,
2009-09-18, 03:34:04,VALID,918.581,VALID,0,VALID,97.5797,VALID,0,VALID,19.1554,VALID,184,VALID,0.784375,
2009-09-18, 03:35:04,VALID,918.589,VALID,0,VALID,97.5721,VALID,0,VALID,19.1164,VALID,184,VALID,0.914063,
2009-09-18, 03:36:04,VALID,918.575,VALID,0,VALID,97.5873,VALID,0,VALID,19.1359,VALID,184,VALID,0.857422,
2009-09-18, 03:37:04,VALID,918.556,VALID,0,VALID,97.5797,VALID,0,VALID,19.1164,VALID,184,VALID,0.662891,
2009-09-18, 03:38:04,VALID,918.573,VALID,0,VALID,97.5721,VALID,0,VALID,19.0759,VALID,184,VALID,0.995703,
2009-09-18, 03:39:04,VALID,918.52,VALID,0,VALID,97.5721,VALID,0,VALID,19.0759,VALID,184,VALID,0.653125,
2009-09-18, 03:40:04,VALID,918.568,VALID,0,VALID,97.6178,VALID,0,VALID,19.1164,VALID,184,VALID,0.216016,
2009-09-18, 03:41:04,VALID,918.559,VALID,0,VALID,97.6178,VALID,0,VALID,19.1164,VALID,184,VALID,0.418359,
2009-09-18, 03:42:04,VALID,918.535,VALID,0,VALID,97.5873,VALID,0.107441,VALID,19.0954,VALID,184,VALID,0.417969,